Date,Extremely,Moderately,A Little,Not at All,Concerned
2/25/2020,5,16,41,38,21
2/26/2020,5,16,41,38,21
2/27/2020,5,16,41,38,21
2/28/2020,5,16,41,38,21
2/29/2020,5,16,41,38,21
3/1/2020,5,16,41,38,21
3/2/2020,5,16,41,37,21
3/3/2020,5,16,41,37,21
3/4/2020,5,16,41,37,21
3/5/2020,5,17,41,36,22
3/6/2020,5,17,41,36,22
3/7/2020,5,17,41,37,22
3/8/2020,6,17,40,37,23
3/9/2020,6,18,39,37,24
3/10/2020,6,19,38,37,25
3/11/2020,7,20,37,36,27
3/12/2020,7,21,37,35,28
3/13/2020,8,22,36,34,30
3/14/2020,9,22,36,33,31
3/15/2020,10,23,35,31,33
3/16/2020,11,24,35,30,35
3/17/2020,12,25,35,28,37
3/18/2020,13,25,35,27,38
3/19/2020,14,24,35,25,38
3/20/2020,15,27,34,24,42
3/21/2020,16,28,34,22,44
3/22/2020,17,29,34,20,46
3/23/2020,18,30,33,19,48
3/24/2020,18,31,33,18,49
3/25/2020,19,31,33,17,50
3/26/2020,19,33,32,16,52
3/27/2020,20,33,32,15,53
3/28/2020,20,35,31,14,55
3/29/2020,21,34,31,14,55
3/30/2020,21,34,31,14,55
3/31/2020,21,34,31,14,55
4/1/2020,22,33,31,14,55
4/2/2020,22,34,30,14,56
4/3/2020,22,34,30,14,56
4/4/2020,23,34,29,14,57
4/5/2020,23,34,29,14,57
4/6/2020,23,34,29,14,57
4/7/2020,22,34,29,15,56
4/8/2020,22,33,30,15,55
4/9/2020,21,33,31,15,54
4/10/2020,21,33,31,15,54
4/11/2020,20,33,32,15,53
4/12/2020,19,33,32,16,52
4/13/2020,19,32,32,17,51
4/14/2020,18,33,32,17,51
4/15/2020,17,33,32,18,50
4/16/2020,16,33,32,19,49
4/17/2020,15,32,33,20,47
4/18/2020,15,32,33,20,47
4/19/2020,15,31,33,21,46
4/20/2020,15,30,33,22,45
4/21/2020,14,31,33,22,45
4/22/2020,14,30,33,23,44
4/23/2020,14,28,34,24,42
4/24/2020,13,28,34,25,41
4/25/2020,13,28,34,25,41
4/26/2020,13,27,34,26,40
4/27/2020,12,27,34,27,39
4/28/2020,12,27,33,28,39
4/29/2020,11,27,33,29,38
4/30/2020,11,26,33,30,37
5/1/2020,11,25,33,31,36
5/2/2020,10,25,33,32,35
5/3/2020,10,25,33,32,35
5/4/2020,10,24,33,33,34
5/5/2020,10,24,33,33,34
5/6/2020,10,23,33,34,33
5/7/2020,10,23,33,34,33
5/8/2020,10,23,32,35,33
5/9/2020,10,23,32,35,33
5/10/2020,10,22,32,36,32
5/11/2020,9,23,32,36,32
5/12/2020,9,22,33,36,31
5/13/2020,9,21,33,37,30
5/14/2020,9,21,33,37,30
5/15/2020,8,21,33,38,29
5/16/2020,8,21,33,38,29
5/17/2020,8,20,33,39,28
5/18/2020,8,20,33,39,28
5/19/2020,7,21,33,39,28
5/20/2020,7,21,32,40,28
5/21/2020,7,21,32,40,28
5/22/2020,7,21,32,40,28
5/23/2020,7,21,31,41,28
5/24/2020,7,21,31,41,28
5/25/2020,7,21,31,41,28
5/26/2020,7,21,31,41,28
5/27/2020,7,21,31,41,28
5/28/2020,7,21,31,41,28
5/29/2020,6,21,31,42,27
5/30/2020,6,20,31,43,26
5/31/2020,6,20,31,43,26
6/1/2020,6,20,31,43,26
6/2/2020,6,18,32,44,24
6/3/2020,6,18,32,44,24
6/4/2020,5,19,32,44,24
6/5/2020,5,19,32,44,24
6/6/2020,5,18,32,45,23
6/7/2020,5,18,32,45,23
6/8/2020,5,18,32,45,23
6/9/2020,5,18,32,45,23
6/10/2020,5,18,32,45,23
6/11/2020,5,18,32,45,23
6/12/2020,6,18,32,44,24
6/13/2020,6,18,32,44,24
6/14/2020,6,18,32,44,24